Sierra Vista, AZ

9:03 PM MST on April 26, 2018 (GMT -0700)
Sierra Vista Municipal-Libby Army Air Field

Weather History for KFHU - February, 2014

Change the Weather History Date:

Thursday, February 20, 2014

  Actual Average Record
Temperature  
Mean Temperature 54 °F -  
Max Temperature 68 °F 60 °F 76 °F (2016)
Min Temperature 39 °F 40 °F 27 °F (1984)
Degree Days  
Heating Degree Days 12    
Growing Degree Days 4 (Base 50)    
Moisture  
Dew Point 10 °F    
Average Humidity 18    
Maximum Humidity 39    
Minimum Humidity 7    
Precipitation  
Precipitation 0.00 in - - ()
Sea Level Pressure  
Sea Level Pressure 29.99 in    
Wind  
Wind Speed 8 mph (WNW)    
Max Wind Speed 14 mph    
Max Gust Speed 18 mph    
Visibility 10 miles    
Events      
Averages and records for this station are not official NWS values.
T = Trace of Precipitation, MM = Missing Value Source: NWS Daily Summary

Daily Weather History Graph

Daily Weather History Graph

Search for Another Location

Airport or City:

Astronomy

Feb. 20, 2014 Rise Set
Actual Time 6:58 AM MST 6:12 PM MST
Civil Twilight 6:33 AM MST 6:37 PM MST
Nautical Twilight 6:05 AM MST 7:05 PM MST
Astronomical Twilight 5:36 AM MST 7:33 PM MST
Moon 11:46 PM MST (2/20) 10:05 AM MST (2/20)
Length of Visible Light 12h 03m
Length of Day
11h 14m
Waning Gibbous, 70% of the Moon is Illuminated
Feb 20
Waning Gibbous
Feb 22
Last Quarter
Mar 1
New
Mar 8
First Quarter
Mar 16
Full

Hourly Weather History & Observations

Time (MST) Temp. Windchill Dew Point Humidity Pressure Visibility Wind Dir Wind Speed Gust Speed Precip Events Conditions
12:55 AM 51.8 °F - 15.8 °F 24% 29.88 in 10.0 mi West 9.2 mph - N/A   Partly Cloudy
1:55 AM 46.4 °F 42.4 °F 15.8 °F 29% 29.90 in 10.0 mi West 8.1 mph - N/A   Scattered Clouds
2:55 AM 48.2 °F - 15.8 °F 27% 29.91 in 10.0 mi West 12.7 mph - N/A   Partly Cloudy
3:55 AM 48.2 °F - 15.8 °F 27% 29.91 in 10.0 mi WSW 9.2 mph - N/A   Clear
4:55 AM 50.0 °F - 14.0 °F 24% 29.93 in 10.0 mi WNW 3.5 mph - N/A   Clear
5:55 AM 39.2 °F 35.0 °F 15.8 °F 39% 29.99 in 10.0 mi WNW 5.8 mph - N/A   Clear
6:55 AM 46.4 °F 42.9 °F 15.8 °F 29% 29.99 in 10.0 mi WSW 6.9 mph - N/A   Partly Cloudy
7:55 AM 51.8 °F - 17.6 °F 26% 29.99 in 10.0 mi East 4.6 mph - N/A   Partly Cloudy
8:55 AM 57.2 °F - 15.8 °F 20% 30.02 in 10.0 mi Calm Calm - N/A   Scattered Clouds
9:55 AM 60.8 °F - 15.8 °F 17% 30.04 in 10.0 mi North 4.6 mph - N/A   Partly Cloudy
10:55 AM 62.6 °F - 10.4 °F 13% 30.06 in 10.0 mi Variable 4.6 mph - N/A   Partly Cloudy
11:55 AM 64.4 °F - 12.2 °F 13% 30.05 in 10.0 mi ENE 6.9 mph - N/A   Scattered Clouds
12:55 PM 66.2 °F - 10.4 °F 11% 30.03 in 10.0 mi Variable 4.6 mph - N/A   Scattered Clouds
1:55 PM 66.2 °F - 8.6 °F 11% 30.01 in 10.0 mi North 5.8 mph - N/A   Scattered Clouds
2:55 PM 68.0 °F - 1.4 °F 7% 29.99 in 10.0 mi NNW 9.2 mph 18.4 mph N/A   Scattered Clouds
3:55 PM 68.0 °F - 1.4 °F 7% 29.99 in 10.0 mi WNW 13.8 mph - N/A   Scattered Clouds
4:55 PM 66.2 °F - 3.2 °F 8% 29.99 in 10.0 mi WNW 13.8 mph - N/A   Mostly Cloudy
5:55 PM 62.6 °F - 5.0 °F 10% 30.03 in 10.0 mi West 10.4 mph - N/A   Mostly Cloudy
6:55 PM 57.2 °F - 5.0 °F 12% 30.04 in 10.0 mi WSW 10.4 mph - N/A   Mostly Cloudy
7:55 PM 55.4 °F - 5.0 °F 13% 30.03 in 10.0 mi West 13.8 mph - N/A   Mostly Cloudy
8:55 PM 53.6 °F - 5.0 °F 14% 30.02 in 10.0 mi West 10.4 mph - N/A   Scattered Clouds
9:55 PM 51.8 °F - 5.0 °F 15% 30.03 in 10.0 mi WSW 13.8 mph - N/A   Scattered Clouds
10:55 PM 51.8 °F - 5.0 °F 15% 30.02 in 10.0 mi WSW 12.7 mph - N/A   Partly Cloudy
11:55 PM 51.8 °F - 3.2 °F 14% 30.01 in 10.0 mi West 11.5 mph - N/A   Scattered Clouds